Location: Asarope
(8.2500°N, 4.4833°E)
Time: 14:28:00
(UTC+00:00)

Centaur AC-72 - Pass Details

Date: 07 June 2020
Orbit: 1120 x 35236 km, 19.1° (Epoch: 07 July)

Event Time Altitude Azimuth Distance (km) Brightness Sun altitude
Rises 16:48:26 0° 271° (W) 13,175 9.7 15.2°
Reaches altitude 10° 16:58:03 10° 267° (W) 14,464 9.9 13.0°
Drops below altitude 10° 22:56:52 10° 247° (WSW) 37,716 10.5 -57.2°
Enters shadow 01:56:17 10° 248° (WSW) 15,053 8.1 -44.6°
Exits shadow 02:34:23 68° 232° (SW) 2,607 4.2 -37.4°
Maximum altitude 02:36:23 82° 162° (SSE) 2,139 4.0 -37.0°
Sets 02:45:11 0° 74° (ENE) 4,030 6.6 -35.3°
